www.pogodaiklimat.ru

Погода и климат >> Архив погоды >> Турция >> Измир


ПОГОДА в Измире

  • Прогноз погоды в Измире
  • Монитор погоды в Измире

АРХИВ ПОГОДЫ в Измире

Время (UTC), дата Ветер
(напр.,м/с)
 
Видим.   Явления Облачность Т
(С)
Тd
(С)
f
(%)
Тe
(С)
Тes
(С)
Комфортность P
(гПа)
Po
(гПа)
Тmin
(С)
Tmax
(С)
R
(мм)
R24
(мм)
S
(см)
10 10.07 СЗ 3 20 км ясно +34.1 +15.4 33 +36 +53 опасность
солнечного
удара
1007.0 1003.8
11 10.07 З 4 20 км ясно +33.6 +14.0 31 +35 +48 душно 1006.7 1003.5
12 10.07 З 5
{8}
20 км ясно +33.0 +16.3 37 +36 +45 очень
душно
1006.8 1003.6
13 10.07 З 4 20 км ясно +32.8 +17.0 39 +36 +45 очень
душно
1006.4 1003.2
14 10.07 З 3 20 км ясно +33.3 +17.0 38 +37 +44 очень
душно
1006.4 1003.2
15 10.07 З 4
{8}
20 км ясно +32.6 +17.6 41 +37 +40 очень
душно
1006.3 1003.1
16 10.07 З 4 20 км ясно +32.0 +17.0 41 +36 +37 очень
душно
1006.2 1003.0
17 10.07 З 2 20 км 4/0
[Ci fib]
+30.9 +16.8 43 +34 +35 душно 1006.1 1002.9
18 10.07 ЮЗ 1
{8}
20 км 5/0
[Ci fib]
+30.0 +17.5 47 +34 +34 очень
душно
1006.1 1002.9 +34.7
19 10.07 Ю 1 20 км 5/1 1000 м
[Cu hum Ci fib]
+28.9 +15.7 45 +32 +32 душно 1005.9 1002.7
20 10.07 Ю 1 20 км 5/1 1000 м
[Cu hum Ci fib]
+27.9 +16.2 49 +31 +31 душно 1005.6 1002.4
22 10.07 З 2 20 км 5/1 1000 м
[Cu hum Ci fib]
+28.5 +16.4 48 +32 +32 душно 1004.8 1001.6
23 10.07 С 1 20 км ясно +26.9 +15.9 51 +30 +30 душно 1004.7 1001.5
00 11.07 СЗ 4
{5}
20 км 1/1 1200 м
[Cu hum]
+27.0 +19.9 65 +33 +33 очень
душно
1005.5 1002.3
01 11.07 Ю 1 20 км ясно +26.6 +18.5 61 +31 +31 душно 1003.9 1000.7
02 11.07 ЮЗ 1 20 км ясно +26.0 +18.2 62 +31 +31 очень
душно
1004.2 1001.0
03 11.07 ЮВ 2
{5}
20 км 5/3 1200 м
[Cu hum Ac trans]
+26.2 +16.8 56 +30 +30 душно 1002.1 998.9
04 11.07 ЮВ 4 20 км 6/4 1000 м
[Cu hum Ac trans]
+27.1 +15.8 50 +30 +31 душно 1000.5 997.3
05 11.07 ЮВ 4 20 км 6/4 1000 м
[Cu hum Ac trans]
+27.5 +14.5 45 +30 +31 жарко 1001.4 998.2
06 11.07 ЮЗ 5
{8}
20 км 8/4 1200 м
[Cu hum Ac trans]
+28.0 +17.6 53 +32 +34 душно 1002.5 999.3 +25.7
07 11.07 З 3 20 км 8/4 1000 м
[Cu hum Ac trans]
+26.4 +18.1 60 +31 +34 душно 1003.0 999.8
08 11.07 З 5 20 км 8/4 1000 м
[Cu hum Ac trans]
+26.9 +18.3 59 +32 +34 очень
душно
1003.7 1000.5
09 11.07 З 5
{9}
20 км 8/4 1200 м
[Cu hum Ac trans]
+25.8 +18.0 62 +30 +34 душно 1003.7 1000.5
10 11.07 СЗ 3 20 км 6/4 1000 м
[Cu med, cong Ac trans]
+29.1 +18.0 51 +34 +42 очень
душно
1003.7 1000.5
11 11.07 З 5 20 км 5/5 1000 м
[Cu med, cong]
+29.0 +17.6 50 +33 +38 очень
душно
1003.6 1000.4
12 11.07 СЗ 5
{9}
20 км 5/5 1200 м
[Cu med, cong]
+29.5 +17.0 47 +33 +38 душно 1003.8 1000.6
13 11.07 СЗ 5 20 км 4/4 1000 м
[Cu med, cong]
+29.6 +16.4 45 +33 +38 душно 1004.2 1001.0
14 11.07 СЗ 4 20 км 4/4 1000 м
[Cu hum]
+30.2 +16.2 43 +33 +37 душно 1004.6 1001.4
15 11.07 С 5
{7}
20 км 4/4 1200 м
[Cu hum]
+28.1 +16.4 49 +32 +33 душно 1005.5 1002.3
16 11.07 СЗ 5 20 км 4/4 1000 м
[Cu hum]
+27.3 +15.3 48 +30 +31 душно 1006.2 1003.0
17 11.07 С 4 20 км 3/3 1000 м
[Cu hum]
+26.7 +15.1 49 +29 +30 жарко 1007.0 1003.8
18 11.07 С 4
{8}
20 км 1/1 1200 м
[Cu hum]
+25.0 +14.5 52 +28 +28 жарко 1007.6 1004.3 +30.7
19 11.07 С 2 20 км ясно +24.5 +14.6 54 +27 +27 жарко 1008.0 1004.7
20 11.07 СЗ 3 20 км ясно +24.0 +15.0 57 +27 +27 жарко 1008.1 1004.8
21 11.07 СЗ 3
{6}
20 км ясно +23.6 +15.2 59 +26 +26 жарко 1008.3 1005.0
22 11.07 ЮЗ 2 20 км ясно +22.9 +14.8 60 +27 +27 душно 1008.6 1005.3
23 11.07 СВ 4 20 км ясно +23.2 +13.1 53 +26 +26 жарко 1008.1 1004.8
00 12.07 СВ 3
{6}
20 км ясно +22.8 +12.7 53 +26 +26 жарко 1008.0 1004.7
01 12.07 СВ 4 20 км ясно +22.5 +13.0 55 +25 +25 комфорт 1007.8 1004.5
02 12.07 З 1 20 км ясно +22.1 +14.5 62 +25 +25 комфорт 1008.1 1004.8
03 12.07 СВ 4
{8}
20 км ясно +22.1 +12.4 54 +25 +25 комфорт 1008.2 1004.9
04 12.07 З 2 20 км ясно +21.2 +14.4 65 +24 +25 комфорт 1008.8 1005.5
05 12.07 З 2 20 км ясно +22.3 +13.7 58 +25 +29 комфорт 1008.9 1005.6
06 12.07 ЮЗ 3
{8}
20 км 3/0
[Ac trans]
+23.5 +13.1 52 +26 +31 жарко 1009.3 1006.0 +21.1
07 12.07 З 4 20 км 3/0
[Ac trans]
+24.6 +12.2 46 +26 +32 жарко 1009.4 1006.1
08 12.07 З 4 20 км 1/0
[Ac trans]
+25.2 +13.1 47 +27 +37 жарко 1009.7 1006.4
09 12.07 З 4
{7}
20 км 3/0
[Ac trans]
+27.1 +11.5 38 +28 +38 жарко 1009.7 1006.4
10 12.07 С 4 20 км 4/1 1000 м
[Cu hum Ci fib]
+27.9 +10.5 34 +28 +41 жарко 1009.4 1006.1
11 12.07 СЗ 2 20 км 1/1 1000 м
[Cu hum]
+29.9 +9.3 28 +30 +49 жарко 1008.9 1005.6
12 12.07 СЗ 5
{7}
20 км ясно +30.3 +7.4 24 +29 +38 жарко 1008.9 1005.6
13 12.07 СЗ 5 20 км ясно +30.0 +9.4 28 +30 +36 жарко 1008.9 1005.6
14 12.07 СЗ 5 20 км ясно +29.5 +10.0 30 +30 +35 жарко 1009.0 1005.7
15 12.07 З 6
{9}
20 км ясно +27.8 +14.0 43 +30 +32 жарко 1008.9 1005.6
16 12.07 З 6 20 км ясно +27.0 +14.0 45 +29 +30 жарко 1009.3 1006.0
17 12.07 З 4 20 км ясно +26.2 +15.9 53 +29 +29 жарко 1009.6 1006.3
18 12.07 СЗ 4
{9}
20 км ясно +25.5 +15.2 53 +28 +28 жарко 1009.5 1006.2 +31.1
19 12.07 З 3 20 км ясно +24.7 +13.6 50 +27 +27 жарко 1010.1 1006.8
20 12.07 З 3 20 км ясно +24.4 +13.6 51 +27 +27 жарко 1010.0 1006.7
21 12.07 З 2
{5}
20 км ясно +24.4 +13.3 50 +27 +27 жарко 1010.1 1006.8
22 12.07 З 2 20 км ясно +23.7 +13.3 52 +26 +26 жарко 1010.3 1007.0
23 12.07 Ю 1 20 км ясно +21.9 +11.0 50 +24 +24 комфорт 1009.9 1006.6
00 13.07 ЮЗ 1
{5}
20 км ясно +22.4 +10.5 47 +24 +24 комфорт 1009.9 1006.6
01 13.07 З 3 20 км 4/0
[Ac trans]
+23.2 +9.8 43 +25 +25 комфорт 1009.9 1006.6
02 13.07 З 4 20 км 4/0
[Ac trans]
+23.3 +9.9 43 +25 +25 комфорт 1009.9 1006.6
03 13.07 З 2
{5}
20 км 4/0
[Ac trans]
+23.1 +10.8 46 +25 +25 комфорт 1009.5 1006.2
04 13.07 З 2 20 км 5/0
[Ac trans]
+23.3 +11.0 46 +26 +26 жарко 1009.7 1006.4
05 13.07 З 3 20 км 4/0
[Ac trans]
+23.8 +11.1 45 +25 +27 комфорт 1010.3 1007.0
06 13.07 З 2
{5}
20 км ясно +24.9 +10.7 41 +26 +33 жарко 1010.6 1007.3 +21.9
07 13.07 З 2 20 км ясно +26.3 +9.1 34 +27 +39 жарко 1010.3 1007.0
08 13.07 З 2 20 км ясно +27.6 +9.3 32 +28 +43 жарко 1010.3 1007.0
09 13.07 СЗ 2
{4}
20 км ясно +28.4 +8.5 29 +28 +47 жарко 1010.0 1006.7
10 13.07 З 4 20 км ясно +28.4 +11.8 36 +29 +44 жарко 1009.8 1006.5
11 13.07 З 5 20 км 1/1 1000 м
[Cu hum]
+28.6 +12.8 38 +30 +39 жарко 1009.3 1006.0
12 13.07 ЮЗ 5
{7}
20 км 1/1 1200 м
[Cu hum]
+29.2 +12.1 35 +30 +39 жарко 1008.9 1005.6
13 13.07 З 5 20 км 1/1 1000 м
[Cu hum]
+29.0 +11.4 34 +30 +37 жарко 1009.0 1005.7
14 13.07 З 5 20 км 1/1 1000 м
[Cu hum]
+29.0 +11.9 35 +30 +34 жарко 1008.8 1005.5
15 13.07 З 4
{8}
20 км ясно +29.1 +12.8 37 +30 +34 жарко 1008.4 1005.1
16 13.07 З 4 20 км ясно +27.8 +13.6 42 +30 +31 жарко 1008.1 1004.8
17 13.07 З 3 20 км ясно +26.6 +14.7 48 +29 +29 жарко 1008.2 1004.9
18 13.07 З 4
{8}
20 км ясно +25.7 +14.5 50 +28 +28 жарко 1008.1 1004.8 +29.8
19 13.07 З 3 20 км ясно +25.7 +13.2 46 +28 +28 жарко 1008.0 1004.7
20 13.07 ЮЗ 2 20 км ясно +25.7 +11.4 41 +27 +27 жарко 1007.9 1004.6
21 13.07 З 2
{4}
20 км ясно +25.9 +10.8 39 +27 +27 жарко 1007.8 1004.6
22 13.07 ЮВ 1 20 км 1/0
[Ci fib]
+23.1 +10.1 44 +25 +25 комфорт 1007.2 1003.9
23 13.07 Ю 1 20 км 3/0
[Ci fib]
+22.2 +10.0 46 +24 +24 комфорт 1006.9 1003.6
00 14.07 Ю 1
{4}
20 км 4/0
[Ci fib]
+21.9 +11.3 51 +24 +24 комфорт 1006.3 1003.0
01 14.07 ЮВ 2 20 км 4/1 1000 м
[Cu hum Ci fib]
+22.5 +11.5 50 +25 +25 комфорт 1006.0 1002.7
02 14.07 ЮВ 1 20 км 4/3 1000 м
[Cu hum Ci fib]
+21.2 +11.5 54 +23 +23 комфорт 1005.6 1002.3
03 14.07 ЮВ 3
{4}
20 км 5/3 1200 м
[Cu hum Ci fib]
+22.5 +11.2 49 +25 +25 комфорт 1005.2 1001.9
04 14.07 В 2 20 км 5/3 1000 м
[Cu hum Ci fib]
+22.0 +12.0 53 +24 +25 комфорт 1004.7 1001.4
05 14.07 ЮВ 2 20 км 8/4 1000 м
[Cu med, cong Ac trans]
+23.0 +14.3 58 +27 +28 душно 1005.3 1002.0
06 14.07 В 1
{4}
20 км 6/4 1200 м
[Cu med, cong Ac und]
+24.3 +13.2 50 +26 +30 жарко 1005.2 1001.9 +21.2
07 14.07 ЮВ 2 20 км 4/1 1000 м
[Cu hum Ac trans]
+25.5 +13.7 48 +28 +36 жарко 1004.6 1001.3
08 14.07 В 3 20 км 4/1 1000 м
[Cu hum Ac trans]
+28.0 +11.8 37 +29 +38 жарко 1003.9 1000.7
09 14.07 В 3
{5}
20 км 4/1 1200 м
[Cu hum Ac trans]
+28.6 +11.1 34 +29 +40 жарко 1003.1 999.9
10 14.07 СЗ 3 20 км 6/3 1000 м
[Cu med, cong Ac und]
+29.4 +12.2 35 +30 +39 жарко 1002.9 999.7
11 14.07 СЗ 3 20 км 6/4 1000 м
[Cu med, cong Ac und]
+29.0 +14.7 42 +31 +40 жарко 1002.4 999.2
12 14.07 З 5
{12}
20 км 9/5 1200 м
[Cu med, cong Ac As]
+22.4 +16.3 68 +27 +29 душно 1004.4 1001.1
13 14.07 ЮЗ 4 15 км слаб. ливневой дождь 9/5 1000 м
[Cu med, cong Ac As]
+19.8 +17.0 84 +22 +25 комфорт 1005.6 1002.3
14 14.07 С 2 20 км в посл. час ливневой дождь 6/4 1000 м
[Cu med, cong Ac und]
+24.0 +18.0 69 +28 +33 душно 1004.4 1001.1
15 14.07 З 4
{10}
20 км {ливн. осадки} 5/3 1200 м
[Cu hum Ac trans]
+23.4 +16.5 65 +28 +30 душно 1004.6 1001.3
16 14.07 З 3 20 км 4/1 1000 м
[Cu hum Ac trans]
+23.5 +16.1 63 +27 +28 душно 1004.7 1001.4
17 14.07 З 3 20 км 1/0
[Ac trans]
+22.8 +16.9 69 +28 +28 душно 1005.3 1002.0
18 14.07 З 3
{10}
20 км {ливн. осадки} 1/0
[Ac trans]
+22.5 +17.0 71 +27 +27 душно 1005.9 1002.6 +30.5 0.7
19 14.07 З 2 20 км ясно +22.5 +16.1 67 +27 +27 душно 1006.4 1003.1
20 14.07 СЗ 1 20 км ясно +22.3 +16.2 68 +26 +26 жарко 1006.3 1003.0
21 14.07 З 2
{4}
20 км ясно +21.5 +15.6 69 +25 +25 комфорт 1006.6 1003.3
22 14.07 З 4 20 км ясно +21.3 +16.3 73 +25 +25 комфорт 1006.9 1003.6
23 14.07 З 2 20 км ясно +21.0 +16.4 75 +25 +25 комфорт 1006.9 1003.6
00 15.07 З 2
{5}
20 км ясно +20.8 +16.8 78 +25 +25 комфорт 1006.7 1003.4
01 15.07 З 2 20 км ясно +21.1 +16.5 75 +25 +25 комфорт 1006.7 1003.4
02 15.07 З 2 20 км ясно +21.0 +16.6 76 +26 +26 душно 1006.8 1003.5
03 15.07 З 2
{4}
20 км 1/1 1200 м
[Cu hum]
+20.5 +16.7 79 +24 +24 комфорт 1007.2 1003.9
04 15.07 З 2 20 км 3/3 1000 м
[Cu hum]
+21.0 +16.8 77 +25 +26 комфорт 1007.4 1004.1
05 15.07 СЗ 3 20 км 3/3 1000 м
[Cu hum]
+21.6 +17.0 75 +26 +28 душно 1007.9 1004.6
06 15.07 З 3
{4}
20 км 3/3 1200 м
[Cu hum]
+22.9 +16.3 66 +27 +32 душно 1008.3 1005.0 +20.4
08 15.07 З 3 20 км 3/3 1000 м
[Cu hum]
+23.9 +14.6 56 +27 +36 жарко 1008.4 1005.1
09 15.07 СЗ 2
{5}
20 км 3/3 1200 м
[Cu hum]
+25.5 +15.5 54 +29 +42 душно 1008.5 1005.2
10 15.07 З 3 20 км 5/3 1000 м
[Cu hum Ci fib]
+25.7 +15.4 53 +29 +40 душно 1008.8 1005.5
11 15.07 З 4 20 км 5/3 1000 м
[Cu hum Ci fib]
+26.7 +15.1 49 +29 +39 жарко 1008.6 1005.3
12 15.07 З 4
{6}
20 км 5/3 1200 м
[Cu hum Ci fib]
+27.6 +14.6 45 +30 +37 жарко 1008.1 1004.8
13 15.07 З 4 20 км 6/3 1000 м
[Cu hum Ci fib]
+26.8 +14.2 46 +29 +35 жарко 1007.6 1004.3
14 15.07 З 4 20 км 6/3 1000 м
[Cu hum Ci fib]
+28.1 +14.3 43 +30 +34 жарко 1007.5 1004.2
15 15.07 З 3
{7}
20 км 6/3 1200 м
[Cu hum Ci sp]
+27.7 +13.2 41 +29 +32 жарко 1007.6 1004.3
16 15.07 З 4 20 км 6/3 1000 м
[Cu hum Ci sp]
+26.9 +11.7 39 +28 +29 жарко 1007.3 1004.0
17 15.07 З 4 20 км 6/3 1000 м
[Cu hum Ci sp]
+26.1 +11.3 40 +27 +27 жарко 1007.6 1004.3
18 15.07 З 3
{7}
20 км 5/3 1200 м
[Cu hum Ac trans]
+25.4 +12.2 44 +27 +27 жарко 1007.9 1004.6 +28.2
19 15.07 СЗ 3 20 км 5/3 1000 м
[Cu hum Ac trans]
+24.6 +15.8 58 +28 +28 душно 1008.2 1004.9
20 15.07 З 2 20 км 4/1 1000 м
[Cu hum Ac trans]
+23.7 +15.3 59 +27 +27 жарко 1008.5 1005.2
21 15.07 З 2
{4}
20 км 3/0
[Ac trans]
+23.7 +14.7 57 +26 +26 жарко 1008.3 1005.0
22 15.07 З 2 20 км ясно +23.6 +13.2 52 +26 +26 жарко 1008.3 1005.0
23 15.07 З 1 20 км ясно +23.3 +14.6 58 +27 +27 душно 1007.9 1004.6
00 16.07 ЮЗ 1
{4}
20 км ясно +22.4 +14.3 60 +26 +26 жарко 1007.4 1004.1
01 16.07 З 1 20 км ясно +21.2 +13.9 63 +24 +24 комфорт 1007.4 1004.1
02 16.07 Ю 1 20 км ясно +20.3 +14.0 67 +24 +24 комфорт 1007.5 1004.2
03 16.07 ЮВ 1
{2}
20 км ясно +19.9 +14.3 70 +23 +23 комфорт 1007.4 1004.1
04 16.07 Ю 2 20 км ясно +20.4 +14.6 69 +24 +25 комфорт 1007.4 1004.1
05 16.07 З 1 20 км ясно +24.0 +14.7 56 +27 +31 жарко 1007.4 1004.1
06 16.07 С 1
{2}
20 км ясно +25.4 +16.3 57 +29 +37 душно 1007.0 1003.7 +19.7
07 16.07 СЗ 2 20 км ясно +26.0 +15.4 52 +29 +41 душно 1006.9 1003.6
08 16.07 З 2 20 км 1/0
[Ci fib]
+27.0 +14.0 45 +29 +46 жарко 1006.4 1003.1
09 16.07 СЗ 2
{3}
20 км 4/1 1200 м
[Cu hum Ci fib]
+28.5 +13.1 39 +30 +46 жарко 1006.1 1002.8
10 16.07 СЗ 2 20 км 4/1 1000 м
[Cu hum Ci fib]
+30.3 +13.0 35 +32 +48 жарко 1005.6 1002.4
11 16.07 З 3 20 км 5/1 1000 м
[Cu hum Ac trans]
+29.0 +14.0 40 +31 +42 жарко 1005.2 1002.0
12 16.07 З 4
{5}
20 км 5/3 1200 м
[Cu hum Ac trans]
+29.5 +15.9 44 +33 +40 душно 1004.6 1001.4
13 16.07 З 4 20 км 4/3 1000 м
[Cu hum Ci fib]
+29.7 +14.6 40 +32 +38 душно 1004.0 1000.7
14 16.07 З 4 20 км 4/1 1000 м
[Cu hum Ci fib]
+29.6 +14.1 39 +32 +36 душно 1003.7 1000.4
15 16.07 З 4
{7}
20 км 4/1 1200 м
[Cu hum Ci fib]
+30.0 +14.9 40 +32 +35 жарко 1003.3 1000.0
16 16.07 З 4 20 км 4/1 1000 м
[Cu hum Ac trans Ci fib]
+29.0 +15.1 43 +32 +32 душно 1003.3 1000.0
17 16.07 З 4 20 км 5/1 1000 м
[Cu hum Ac trans Ci fib]
+27.1 +15.8 50 +30 +30 душно 1003.2 1000.0
18 16.07 З 4
{7}
20 км 5/1 1200 м
[Cu hum Ac trans]
+27.0 +13.7 44 +29 +29 жарко 1002.8 999.6 +30.8
19 16.07 З 2 20 км ясно +26.9 +13.2 43 +29 +29 жарко 1003.0 999.8
20 16.07 Ю 1 20 км 4/0
[Ac trans]
+26.1 +13.5 46 +28 +28 жарко 1003.4 1000.2
21 16.07 ЮВ 1
{4}
20 км 8/3 1200 м
[Cu hum Ac und]
+26.2 +14.3 48 +29 +29 жарко 1003.3 1000.1
22 16.07 С 1 20 км 8/3 1000 м
[Cu hum Ac und]
+26.8 +14.5 47 +29 +29 жарко 1003.0 999.8
23 16.07 ЮЗ 1 20 км 8/4 1000 м
[Cu med, cong Ac und]
+25.7 +15.4 53 +29 +29 душно 1002.7 999.5
00 17.07 СВ 2
{4}
20 км 8/4 1200 м
[Cu med, cong Ac und]
+25.9 +13.7 47 +28 +28 жарко 1002.6 999.4
01 17.07 СВ 1 20 км 8/4 1000 м
[Cu med, cong Ac und]
+25.4 +14.9 52 +28 +28 жарко 1002.1 998.9
02 17.07 СВ 2 20 км 8/4 1000 м
[Cu med, cong Ac und]
+25.0 +14.8 53 +28 +28 жарко 1002.1 998.9
03 17.07 СВ 2
{3}
20 км 8/4 1200 м
[Cu med, cong Ac und]
+24.4 +15.4 57 +27 +27 жарко 1002.2 999.0
04 17.07 СВ 2 20 км 8/4 1000 м
[Cu med, cong Ac und]
+24.3 +15.3 57 +27 +27 жарко 1002.2 999.0
05 17.07 Ю 1 20 км слаб. ливневой дождь 9/5 1000 м
[Cu med, cong Ac und]
+22.7 +17.4 72 +28 +29 душно 1002.8 999.5
06 17.07 СВ 3
{6}
20 км в посл. час ливневой дождь 9/5 1050 м
[Cu med, cong Ac und]
+24.0 +16.6 63 +27 +29 жарко 1003.0 999.8 +22.6 0.2
07 17.07 СВ 3 20 км 8/5 1000 м
[Cu med, cong Ac und]
+24.4 +16.5 61 +28 +31 душно 1003.1 999.9
08 17.07 С 2 20 км 8/5 1000 м
[Cu med, cong Ac und]
+26.7 +17.3 56 +31 +35 душно 1003.0 999.8
09 17.07 СЗ 2
{5}
20 км 8/5 1200 м
[Cu med, cong Ac und]
+26.9 +15.9 51 +30 +36 душно 1002.8 999.6
10 17.07 С 2 20 км 8/4 1000 м
[Cu med, cong Ac und]
+28.7 +16.9 49 +32 +39 душно 1002.9 999.7

 

Местоположение метеостанции Измир (Турция): широта 38.43 долгота 27.17 высота над уровнем моря 25 м.

В архиве по умолчанию представлена погода в Измире за последнюю неделю. Архивные данные за месяц целиком и за предыдущие месяцы, начиная с января 2011 года, Вы можете получить, выбрав интересующий диапазон дат из раскрывающегося списка и нажав кнопку "Ввод!".


*Определитесь, кто Вы:
робот инопланетянин человек

Внимание! Время в таблицах - всемирное. Для получения местного времени необходимо прибавить поправку, которая равна 2 ч.

Смотрите также архив погоды в соседних городах и на ближайших метеорологических станциях:

Погода в Измир / Сигли (Турция) (15 км)
Погода в Измир аэропорту (Турция) (18 км)
Погода в Манисе (Турция) (31 км)
Погода в Кушадасы (Турция) (63 км)
Погода в Дикили (Турция) (74 км)
Погода в Чешме (Турция) (77 км)
Погода в Акхисаре (Турция) (80 км)
Погода на Самосе (Греция) (84 км)
Погода в Митилини (Греция) (87 км)
Погода в Айдыне (Турция) (88 км)

Пояснения к столбцам:

Ветер - указаны скорость ветра в м/с - средняя за 10 мин, порывы в срок и между сроками (в фигурных скобках) и направление, откуда дует ветер: С - северный, СВ - северо-восточный, В - восточный, ЮВ - юго-восточный, Ю - южный, ЮЗ - юго-западный, З - западный, СЗ - северо-западный.
Видимость - горизонтальная дальность видимости в метрах или километрах. При видимости от 1 до 10 км при отсутствии осадков обычно наблюдается дымка, при ухудшении видимости до 1 км и менее - туман. В сухую погоду видимость может ухудшаться дымом, пылью или мглою.
Явления - указаны атмосферные явления, наблюдавшиеся в срок или в последний час перед сроком; фигурными скобками обозначены явления, наблюдавшиеся между сроками (за 1-3 часа до срока); квадратными скобками обозначены град или гололедные отложения с указанием их диаметра в мм.
Облачность - указаны через наклонную черту общая и нижняя облачность в баллах и высота нижней границы облаков в метрах; квадратными скобками обозначены формы облаков: Ci - перистые, Cs - перисто-слоистые, Cc - перисто-кучевые, Ac - высококучевые, As - высокослоистые, Sc - слоисто-кучевые, Ns - слоисто-дождевые, Cu - кучевые, Cb - кучево-дождевые. Подробнее классификацию облаков см. в Атласе облаков (PDF).
T - Температура воздуха - температура, измеренная на высоте 2 м над землей.
Td - Температура точки росы - температура, при понижении до которой содержащийся в воздухе водяной пар достигнет насыщения.
f - Относительная влажность воздуха - влажноcть воздуха, измеренная на высоте 2 м над землей.
Te - Эффективная температура - температура, которую ощущает одетый по сезону человек в тени. Характеристика душности погоды. При расчете учитывается влияние влажности воздуха и скорости ветра на теплоощущения человека.
Tes - Эффективная температура на солнце - температура, которую ощущает человек, с поправкой на солнечный нагрев. Характеристика знойности погоды. Зависит от высоты солнца над горизонтом, облачности и скорости ветра. Ночью, в пасмурную погоду, а также при ветре 12 м/с и более поправка равна нулю.
P - Атмосферное давление - приведенное к уровню моря атмосферное давление.
Po - Атмосферное давление - измеренное на уровне метеостанции атмосферное давление.
Tmin - Минимальная температура - минимум температуры воздуха на высоте 2 м над землей.
Tmax - Максимальная температура - максимум температуры воздуха на высоте 2 м над землей.
R - Количество осадков - Количество выпавших осадков за период времени, мм. При наведении курсора мыши на число - период времени, за который выпало указанное количество осадков.
R24 - Количество осадков - Количество выпавших осадков за 24 часа, мм.
S - Снежный покров - Высота снежного покрова, см. При наведении курсора мыши на число - состояние снежного покрова и степень покрытия местности в баллах.